map of HNC home
Great Circle Mapper logo
HNC - Airport
Location
City:  Hatteras, North Carolina, United States
Name:Billy Mitchell Airport
ICAO / IATA:KHSE / HNC
FAA:HSE

Details
Type:Airport (Airfield)
Use:Public/Civil
Latitude:3513'58"N (35.232806)
Longitude:7537'04"W (-75.617780)
Datum:WGS 1984
Elevation:16 ft (5 m)
Variation:10.86W (WMM2015 magnetic declination)
-0.02 annual change
Runways:1
Longest:3002 × 75 ft (915 × 23 m), paved

Time
Time Zone:UTC-5 (DST-4)
Local Time:

Weather
METAR:KHSE 040451Z AUTO 21013G20KT 10SM -RA FEW033 SCT110 26/24 A3000 RMK AO2 RAB36 SLP158 P0000 T02610239 402610206 TSNO

Related Locations
Nearby:
Farthest:MGV: 11826 mi / 19033 km
Margaret River, WA, AU

Find:

   beyond  
but within

Other Information
Maps:
NOTAMs:
Links:
Sources:

  
flag of United States
flag of North Carolina
  

Sectional Chart

Flight Planning
at skyvector.com

Satellite Image

Google Maps Satellite view

 

Copyright © 2004-2015 Karl L. Swartz. All rights reserved.
The Great Circle Mapper name and logo are trademarks of the Great Circle Mapper.
All other trademarks mentioned herein belong to their respective owners.
Please see credits for attibutions and further copyright information.

  Follow gcmap on Facebook Follow gcmap on Twitter Follow gcmap on Google+

hCard Microformat

Geo Microformat